KUIPER-00040

导读

KUIPER-00040是美国亚马逊柯伊伯(Project Kuiper)低轨卫星互联网项目的卫星,于2025年6月23日发射,是该项目大规模部署阶段的组成卫星。柯伊伯项目计划部署3236颗低轨卫星,旨在为全球提供高速低延迟互联网接入,还可整合亚马逊AWS云服务,拓展边缘计算与企业级服务,目标是抢占低轨轨道与卫星互联网市场。

基本信息
目录编号:
64501
目录名称:
KUIPER-00040
国际标识:
2025-134B
轨道中心:
EARTH
卫星名称:
KUIPER-00040
卫星全名:
KUIPER-00040
卫星状态:
在轨 (已飞行446 天)
发射日期:
2025-06-23 UTC
国别 :
美国 (US)
星等 :
--
该卫星已列入 空间交会检测服务 Space Conjunction Data Service (SCDS) ,当前飞行风险评估等级: 无高风险
轨道信息
数据来源 国际轨道数据 AOE轨道数据
星历时间 2026-09-11T18:16:07+0800
16小时前
查看轨道信息
2026-09-09T21:00:00+0800
2天前
查看轨道信息
半长轴 7007.68km 7007.7km
偏心率 0.0001094 0.0000863
轨道倾角 51.897° 51.899°
近地点辐角 92.294° 91.819°
升交点赤经 141.846° 150.188°
平近点角 267.814° 293.098°
近地点 628.776km 628.958km
远地点 630.31km 630.168km
周期 97.302分钟 97.302分钟
每日圈数 14.799307 14.799245
详细信息
使用方式:
暂无
2D轨道图
3D轨道图
轨道高度分析图
轨道倾角分析图
轨道综合分析图
查看轨道综合分析图
与全量物体交会距离演化趋势
与全量物体交会风险概率演化趋势